Time,TemperatureF,DewpointF,PressureIn,WindDirection,WindDirectionDegrees,WindSpeedMPH,WindSpeedGustMPH,Humidity,HourlyPrecipIn,Conditions,Clouds,dailyrainin,SoftwareType,DateUTC
2013-05-10 00:02:00,63.5,52.3,28.65,NNE,22,0.0,0.0,67,0.00,,,0.00,open2300-1.11,2013-05-09 21:02:00,
2013-05-10 00:12:00,63.5,52.3,28.64,NE,45,0.0,0.0,67,0.00,,,0.00,open2300-1.11,2013-05-09 21:12:00,
2013-05-10 00:17:00,63.5,52.3,28.64,NNE,22,0.0,2.5,67,0.00,,,0.00,open2300-1.11,2013-05-09 21:17:00,
2013-05-10 00:27:00,63.5,52.3,28.64,NNE,22,0.0,0.0,67,0.00,,,0.00,open2300-1.11,2013-05-09 21:27:00,
2013-05-10 00:38:00,63.5,52.3,28.64,NNE,22,0.0,0.0,67,0.00,,,0.00,open2300-1.11,2013-05-09 21:38:00,
2013-05-10 00:47:00,63.7,52.5,28.64,NE,45,0.0,0.0,67,0.00,,,0.00,open2300-1.11,2013-05-09 21:47:00,
2013-05-10 00:52:00,63.7,52.5,28.64,NNE,22,0.0,0.0,67,0.00,,,0.00,open2300-1.11,2013-05-09 21:52:00,
2013-05-10 00:57:00,63.7,52.5,28.64,SSE,157,0.0,0.0,67,0.00,,,0.00,open2300-1.11,2013-05-09 21:57:00,
2013-05-10 01:02:00,63.7,52.5,28.64,SSE,157,0.0,0.0,67,0.00,,,0.00,open2300-1.11,2013-05-09 22:02:00,
2013-05-10 01:07:00,63.7,52.5,28.64,SE,135,0.0,0.0,67,0.00,,,0.00,open2300-1.11,2013-05-09 22:07:00,
2013-05-10 01:17:00,63.7,52.5,28.63,NNE,22,0.0,0.0,67,0.00,,,0.00,open2300-1.11,2013-05-09 22:17:00,
2013-05-10 01:22:00,63.7,52.5,28.63,NNE,22,0.0,0.0,67,0.00,,,0.00,open2300-1.11,2013-05-09 22:22:00,
2013-05-10 01:27:00,63.7,52.9,28.63,NNE,22,0.0,0.0,68,0.00,,,0.00,open2300-1.11,2013-05-09 22:27:00,
2013-05-10 01:32:00,63.7,52.9,28.63,NNE,22,0.0,0.0,68,0.00,,,0.00,open2300-1.11,2013-05-09 22:32:00,
2013-05-10 01:42:00,63.5,52.8,28.63,NNE,22,0.0,0.0,68,0.00,,,0.00,open2300-1.11,2013-05-09 22:42:00,
2013-05-10 01:47:00,63.5,52.8,28.63,NNE,22,0.0,0.0,68,0.00,,,0.00,open2300-1.11,2013-05-09 22:47:00,
2013-05-10 01:52:00,63.3,52.6,28.63,NE,45,0.0,0.0,68,0.00,,,0.00,open2300-1.11,2013-05-09 22:52:00,
2013-05-10 01:57:00,63.3,52.1,28.63,NNE,22,0.0,0.0,67,0.00,,,0.00,open2300-1.11,2013-05-09 22:57:00,
2013-05-10 02:02:00,63.3,52.6,28.62,NNE,22,0.0,0.0,68,0.00,,,0.00,open2300-1.11,2013-05-09 23:02:00,
2013-05-10 02:07:00,63.3,52.1,28.63,NNE,22,0.0,0.0,67,0.00,,,0.00,open2300-1.11,2013-05-09 23:07:00,
2013-05-10 02:17:00,63.3,52.6,28.63,NNE,22,0.0,0.0,68,0.00,,,0.00,open2300-1.11,2013-05-09 23:17:00,
2013-05-10 02:22:00,63.1,52.4,28.63,NNE,22,0.0,2.7,68,0.00,,,0.00,open2300-1.11,2013-05-09 23:22:00,
2013-05-10 02:27:00,63.1,52.4,28.62,NNE,22,0.0,0.0,68,0.00,,,0.00,open2300-1.11,2013-05-09 23:27:00,
2013-05-10 07:57:00,62.8,54.0,28.62,NNE,22,0.0,1.6,73,0.00,,,0.00,open2300-1.11,2013-05-10 04:57:00,
2013-05-10 08:02:00,62.8,54.0,28.62,NNE,22,0.0,0.2,73,0.00,,,0.00,open2300-1.11,2013-05-10 05:02:00,
2013-05-10 08:07:00,62.8,53.6,28.63,NNE,22,0.0,0.0,72,0.00,,,0.00,open2300-1.11,2013-05-10 05:07:00,
2013-05-10 08:12:00,63.0,53.8,28.63,North,0,0.0,0.0,72,0.00,,,0.00,open2300-1.11,2013-05-10 05:12:00,
2013-05-10 08:17:00,63.0,53.8,28.63,NNE,22,0.0,0.0,72,0.00,,,0.00,open2300-1.11,2013-05-10 05:17:00,
2013-05-10 08:22:00,63.0,53.8,28.63,NNE,22,0.0,0.0,72,0.00,,,0.00,open2300-1.11,2013-05-10 05:22:00,
2013-05-10 08:32:00,63.3,54.1,28.63,NE,45,0.0,0.0,72,0.00,,,0.00,open2300-1.11,2013-05-10 05:32:00,
2013-05-10 08:37:00,63.3,54.1,28.63,NE,45,0.0,0.0,72,0.00,,,0.00,open2300-1.11,2013-05-10 05:37:00,
2013-05-10 08:42:00,63.5,54.3,28.63,NNE,22,0.0,1.1,72,0.00,,,0.00,open2300-1.11,2013-05-10 05:42:00,
2013-05-10 08:47:00,63.5,54.3,28.64,NE,45,0.0,0.0,72,0.00,,,0.00,open2300-1.11,2013-05-10 05:47:00,
2013-05-10 08:57:00,63.7,54.5,28.63,NNE,22,5.6,5.6,72,0.00,,,0.00,open2300-1.11,2013-05-10 05:57:00,
2013-05-10 09:03:00,63.7,54.1,28.63,NNE,22,0.0,0.0,71,0.00,,,0.00,open2300-1.11,2013-05-10 06:03:00,
2013-05-10 09:12:00,64.0,54.5,28.64,NNE,22,0.0,1.8,71,0.00,,,0.00,open2300-1.11,2013-05-10 06:12:00,
2013-05-10 09:17:00,64.0,54.5,28.64,NE,45,0.0,0.0,71,0.00,,,0.00,open2300-1.11,2013-05-10 06:17:00,
2013-05-10 09:22:00,64.0,54.5,28.64,NNE,22,2.0,2.0,71,0.00,,,0.00,open2300-1.11,2013-05-10 06:22:00,
2013-05-10 09:27:00,64.0,54.5,28.64,NE,45,0.0,2.0,71,0.00,,,0.00,open2300-1.11,2013-05-10 06:27:00,
2013-05-10 09:32:00,64.0,54.5,28.65,NE,45,0.0,0.0,71,0.00,,,0.00,open2300-1.11,2013-05-10 06:32:00,
2013-05-10 09:42:00,64.0,54.5,28.65,NE,45,0.0,2.9,71,0.00,,,0.00,open2300-1.11,2013-05-10 06:42:00,
2013-05-10 09:47:00,64.0,54.5,28.65,NNE,22,0.0,0.0,71,0.00,,,0.00,open2300-1.11,2013-05-10 06:47:00,
2013-05-10 09:52:00,64.0,54.5,28.66,NNE,22,0.0,0.0,71,0.00,,,0.00,open2300-1.11,2013-05-10 06:52:00,
2013-05-10 09:57:00,64.0,54.9,28.65,NNE,22,0.0,2.2,72,0.00,,,0.00,open2300-1.11,2013-05-10 06:57:00,
2013-05-10 10:02:00,64.0,54.9,28.65,NNE,22,0.0,4.7,72,0.00,,,0.00,open2300-1.11,2013-05-10 07:02:00,
2013-05-10 10:12:00,63.7,54.9,28.65,NNE,22,0.0,5.1,73,0.00,,,0.00,open2300-1.11,2013-05-10 07:12:00,
2013-05-10 10:17:00,63.9,55.0,28.66,NNE,22,0.0,0.0,73,0.00,,,0.00,open2300-1.11,2013-05-10 07:17:00,
2013-05-10 10:22:00,64.0,55.2,28.66,NE,45,1.8,1.8,73,0.00,,,0.00,open2300-1.11,2013-05-10 07:22:00,
2013-05-10 10:27:00,64.0,55.2,28.66,North,0,2.7,2.7,73,0.00,,,0.00,open2300-1.11,2013-05-10 07:27:00,
2013-05-10 10:32:00,64.0,55.2,28.66,NNE,22,2.0,2.7,73,0.00,,,0.00,open2300-1.11,2013-05-10 07:32:00,
2013-05-10 10:37:00,64.2,55.4,28.66,NE,45,0.0,2.0,73,0.00,,,0.00,open2300-1.11,2013-05-10 07:37:00,
2013-05-10 10:42:00,64.2,55.0,28.66,NNE,22,0.0,0.0,72,0.00,,,0.00,open2300-1.11,2013-05-10 07:42:00,
2013-05-10 10:52:00,64.9,55.7,28.66,NNE,22,0.0,1.6,72,0.00,,,0.00,open2300-1.11,2013-05-10 07:52:00,
2013-05-10 10:57:00,65.1,55.5,28.66,NNE,22,0.0,1.1,71,0.00,,,0.00,open2300-1.11,2013-05-10 07:57:00,
2013-05-10 11:02:00,65.3,55.7,28.67,NNE,22,0.0,0.0,71,0.00,,,0.00,open2300-1.11,2013-05-10 08:02:00,
2013-05-10 11:07:00,65.5,55.8,28.67,NNE,22,0.0,1.3,71,0.00,,,0.00,open2300-1.11,2013-05-10 08:07:00,
2013-05-10 11:17:00,65.8,55.8,28.67,NE,45,0.0,0.0,70,0.00,,,0.00,open2300-1.11,2013-05-10 08:17:00,
2013-05-10 11:22:00,66.0,55.5,28.67,NNE,22,3.1,3.1,69,0.00,,,0.00,open2300-1.11,2013-05-10 08:22:00,
2013-05-10 11:32:00,66.4,55.5,28.67,NE,45,0.0,3.6,68,0.00,,,0.00,open2300-1.11,2013-05-10 08:32:00,
2013-05-10 11:37:00,66.6,55.6,28.67,NNE,22,0.0,0.0,68,0.00,,,0.00,open2300-1.11,2013-05-10 08:37:00,
2013-05-10 11:47:00,67.3,55.9,28.67,NNE,22,0.0,0.0,67,0.00,,,0.00,open2300-1.11,2013-05-10 08:47:00,
2013-05-10 11:57:00,67.8,56.0,28.67,NNE,22,0.2,2.9,66,0.00,,,0.00,open2300-1.11,2013-05-10 08:57:00,
2013-05-10 12:07:00,68.2,55.9,28.68,NNE,22,1.8,1.8,65,0.00,,,0.00,open2300-1.11,2013-05-10 09:07:00,
2013-05-10 12:12:00,68.4,56.1,28.68,NNE,22,0.0,1.8,65,0.00,,,0.00,open2300-1.11,2013-05-10 09:12:00,
2013-05-10 12:22:00,68.2,55.5,28.67,NNE,22,0.0,0.0,64,0.00,,,0.00,open2300-1.11,2013-05-10 09:22:00,
2013-05-10 12:27:00,67.8,55.2,28.67,NE,45,2.5,2.5,64,0.00,,,0.00,open2300-1.11,2013-05-10 09:27:00,
2013-05-10 12:32:00,67.8,55.2,28.67,NE,45,0.0,2.5,64,0.00,,,0.00,open2300-1.11,2013-05-10 09:32:00,
2013-05-10 12:37:00,68.2,55.5,28.67,NNE,22,0.0,0.0,64,0.00,,,0.00,open2300-1.11,2013-05-10 09:37:00,
2013-05-10 12:42:00,68.5,55.8,28.67,NE,45,0.0,1.1,64,0.00,,,0.00,open2300-1.11,2013-05-10 09:42:00,
2013-05-10 12:49:00,68.5,55.8,28.67,NNE,22,0.0,1.6,64,0.00,,,0.00,open2300-1.11,2013-05-10 09:49:00,
2013-05-10 12:57:00,68.7,55.6,28.68,North,0,3.6,4.2,63,0.00,,,0.00,open2300-1.11,2013-05-10 09:57:00,
2013-05-10 13:02:00,68.5,55.4,28.67,NNE,22,0.0,3.6,63,0.00,,,0.00,open2300-1.11,2013-05-10 10:02:00,
2013-05-10 13:07:00,68.5,55.8,28.68,North,0,0.0,4.2,64,0.00,,,0.00,open2300-1.11,2013-05-10 10:07:00,
2013-05-10 13:17:00,69.1,55.9,28.68,NE,45,0.0,0.0,63,0.00,,,0.00,open2300-1.11,2013-05-10 10:17:00,
2013-05-10 13:22:00,69.3,56.1,28.68,NNE,22,0.0,0.0,63,0.00,,,0.00,open2300-1.11,2013-05-10 10:22:00,
2013-05-10 13:32:00,69.4,56.3,28.67,NE,45,0.0,0.0,63,0.00,,,0.00,open2300-1.11,2013-05-10 10:32:00,
2013-05-10 13:37:00,69.3,55.7,28.67,NE,45,0.0,0.0,62,0.00,,,0.00,open2300-1.11,2013-05-10 10:37:00,
2013-05-10 13:47:00,68.7,55.6,28.67,NNE,22,0.0,0.0,63,0.00,,,0.00,open2300-1.11,2013-05-10 10:47:00,
2013-05-10 13:52:00,68.5,55.4,28.67,NNE,22,0.0,0.0,63,0.00,,,0.00,open2300-1.11,2013-05-10 10:52:00,
2013-05-10 14:02:00,68.4,55.2,28.67,NNE,22,0.0,0.0,63,0.00,,,0.00,open2300-1.11,2013-05-10 11:02:00,
2013-05-10 14:07:00,68.2,55.1,28.67,NNE,22,1.8,1.8,63,0.00,,,0.00,open2300-1.11,2013-05-10 11:07:00,
2013-05-10 14:12:00,68.2,55.1,28.67,NNE,22,1.6,1.8,63,0.00,,,0.00,open2300-1.11,2013-05-10 11:12:00,
2013-05-10 14:17:00,67.8,54.7,28.67,NNE,22,0.0,1.6,63,0.00,,,0.00,open2300-1.11,2013-05-10 11:17:00,
2013-05-10 14:22:00,67.8,54.7,28.67,NNE,22,0.0,0.0,63,0.00,,,0.00,open2300-1.11,2013-05-10 11:22:00,
2013-05-10 14:27:00,67.6,54.5,28.67,NNE,22,0.0,0.0,63,0.00,,,0.00,open2300-1.11,2013-05-10 11:27:00,
2013-05-10 14:37:00,67.6,54.5,28.67,NE,45,0.0,0.0,63,0.00,,,0.00,open2300-1.11,2013-05-10 11:37:00,
2013-05-10 14:42:00,67.3,54.2,28.67,NNE,22,0.0,0.0,63,0.00,,,0.00,open2300-1.11,2013-05-10 11:42:00,
2013-05-10 14:52:00,67.3,54.2,28.67,NNE,22,0.0,0.0,63,0.00,,,0.00,open2300-1.11,2013-05-10 11:52:00,
2013-05-10 14:57:00,67.1,54.0,28.67,NNE,22,0.0,2.9,63,0.00,,,0.00,open2300-1.11,2013-05-10 11:57:00,
2013-05-10 15:02:00,67.1,54.0,28.67,NE,45,0.0,1.3,63,0.00,,,0.00,open2300-1.11,2013-05-10 12:02:00,
2013-05-10 15:12:00,67.1,54.0,28.67,North,0,0.0,0.0,63,0.00,,,0.00,open2300-1.11,2013-05-10 12:12:00,
2013-05-10 15:17:00,67.1,54.5,28.67,North,0,0.0,0.0,64,0.00,,,0.00,open2300-1.11,2013-05-10 12:17:00,
2013-05-10 15:27:00,67.3,54.2,28.66,NNE,22,2.2,2.2,63,0.00,,,0.00,open2300-1.11,2013-05-10 12:27:00,
2013-05-10 15:33:00,67.3,54.2,28.66,North,0,0.0,2.2,63,0.00,,,0.00,open2300-1.11,2013-05-10 12:33:00,
2013-05-10 15:42:00,67.6,54.5,28.66,NNE,22,0.0,0.0,63,0.00,,,0.00,open2300-1.11,2013-05-10 12:42:00,
2013-05-10 15:47:00,67.6,54.5,28.66,NE,45,0.0,0.0,63,0.00,,,0.00,open2300-1.11,2013-05-10 12:47:00,
2013-05-10 15:57:00,67.8,54.3,28.66,NNE,22,0.0,0.0,62,0.00,,,0.00,open2300-1.11,2013-05-10 12:57:00,
2013-05-10 16:02:00,68.2,54.6,28.66,NNE,22,0.0,0.0,62,0.00,,,0.00,open2300-1.11,2013-05-10 13:02:00,
2013-05-10 16:12:00,68.5,54.5,28.66,NNE,22,0.0,0.0,61,0.00,,,0.00,open2300-1.11,2013-05-10 13:12:00,
2013-05-10 16:22:00,69.1,55.1,28.65,NNE,22,0.0,0.0,61,0.00,,,0.00,open2300-1.11,2013-05-10 13:22:00,
2013-05-10 16:27:00,70.3,55.9,28.65,NNE,22,0.0,0.0,60,0.00,,,0.00,open2300-1.11,2013-05-10 13:27:00,
2013-05-10 16:32:00,70.7,55.7,28.65,NNE,22,0.0,0.0,59,0.00,,,0.00,open2300-1.11,2013-05-10 13:32:00,
2013-05-10 16:37:00,71.1,56.0,28.65,NNE,22,0.0,0.0,59,0.00,,,0.00,open2300-1.11,2013-05-10 13:37:00,
2013-05-10 16:42:00,70.9,55.4,28.64,NNE,22,0.0,0.0,58,0.00,,,0.00,open2300-1.11,2013-05-10 13:42:00,
2013-05-10 16:52:00,70.9,55.4,28.64,NNE,22,0.0,0.0,58,0.00,,,0.00,open2300-1.11,2013-05-10 13:52:00,
2013-05-10 16:57:00,71.1,55.5,28.64,NE,45,0.0,2.7,58,0.00,,,0.00,open2300-1.11,2013-05-10 13:57:00,
2013-05-10 17:02:00,70.9,55.4,28.64,NNE,22,0.0,0.0,58,0.00,,,0.00,open2300-1.11,2013-05-10 14:02:00,
2013-05-10 17:07:00,70.9,54.9,28.64,NNE,22,0.0,0.0,57,0.00,,,0.00,open2300-1.11,2013-05-10 14:07:00,
2013-05-10 17:12:00,70.7,55.2,28.64,NNE,22,0.0,0.0,58,0.00,,,0.00,open2300-1.11,2013-05-10 14:12:00,
2013-05-10 17:17:00,70.5,55.0,28.64,NNE,22,0.0,0.0,58,0.00,,,0.00,open2300-1.11,2013-05-10 14:17:00,
2013-05-10 17:22:00,70.3,54.9,28.64,NNE,22,0.0,0.0,58,0.00,,,0.00,open2300-1.11,2013-05-10 14:22:00,
2013-05-10 17:27:00,70.2,54.7,28.64,North,0,0.0,0.0,58,0.00,,,0.00,open2300-1.11,2013-05-10 14:27:00,
2013-05-10 17:32:00,70.2,54.7,28.64,NNE,22,0.0,0.0,58,0.00,,,0.00,open2300-1.11,2013-05-10 14:32:00,
2013-05-10 17:37:00,70.2,54.7,28.64,NE,45,0.0,0.0,58,0.00,,,0.00,open2300-1.11,2013-05-10 14:37:00,
2013-05-10 17:47:00,70.5,55.0,28.63,NNE,22,0.0,0.0,58,0.00,,,0.00,open2300-1.11,2013-05-10 14:47:00,
2013-05-10 17:52:00,70.5,55.0,28.63,NNE,22,0.0,0.0,58,0.00,,,0.00,open2300-1.11,2013-05-10 14:52:00,
2013-05-10 17:57:00,70.7,55.2,28.63,NNE,22,0.0,0.0,58,0.00,,,0.00,open2300-1.11,2013-05-10 14:57:00,
2013-05-10 18:09:00,70.3,54.9,28.63,NNE,22,0.0,0.0,58,0.00,,,0.00,open2300-1.11,2013-05-10 15:09:00,
2013-05-10 18:17:00,70.5,55.0,28.63,NE,45,0.0,0.0,58,0.00,,,0.00,open2300-1.11,2013-05-10 15:17:00,
2013-05-10 18:22:00,70.5,55.0,28.63,NE,45,0.0,0.0,58,0.00,,,0.00,open2300-1.11,2013-05-10 15:22:00,
2013-05-10 18:32:00,70.5,55.0,28.63,NNE,22,0.0,0.0,58,0.00,,,0.00,open2300-1.11,2013-05-10 15:32:00,
2013-05-10 18:42:00,70.5,55.0,28.63,NE,45,0.0,0.0,58,0.00,,,0.00,open2300-1.11,2013-05-10 15:42:00,
2013-05-10 18:48:00,70.9,55.4,28.63,NE,45,0.0,0.0,58,0.00,,,0.00,open2300-1.11,2013-05-10 15:48:00,
2013-05-10 18:57:00,70.9,54.9,28.63,NNE,22,0.0,0.0,57,0.00,,,0.00,open2300-1.11,2013-05-10 15:57:00,
2013-05-10 19:02:00,70.9,54.9,28.63,NNE,22,0.0,0.0,57,0.00,,,0.00,open2300-1.11,2013-05-10 16:02:00,
2013-05-10 19:12:00,70.7,55.2,28.64,NNE,22,0.0,0.0,58,0.00,,,0.00,open2300-1.11,2013-05-10 16:12:00,
2013-05-10 19:22:00,70.5,55.0,28.63,NNE,22,0.0,0.0,58,0.00,,,0.00,open2300-1.11,2013-05-10 16:22:00,
2013-05-10 19:32:00,70.0,54.0,28.63,NNE,22,0.0,0.0,57,0.00,,,0.00,open2300-1.11,2013-05-10 16:32:00,
2013-05-10 19:37:00,69.6,53.7,28.63,NNE,22,0.0,0.0,57,0.00,,,0.00,open2300-1.11,2013-05-10 16:37:00,
2013-05-10 19:42:00,69.4,53.5,28.63,NNE,22,0.0,0.0,57,0.00,,,0.00,open2300-1.11,2013-05-10 16:42:00,
2013-05-10 19:52:00,68.9,53.0,28.63,NNE,22,0.0,0.0,57,0.00,,,0.00,open2300-1.11,2013-05-10 16:52:00,
2013-05-10 20:02:00,68.4,53.0,28.63,NNE,22,0.0,0.0,58,0.00,,,0.00,open2300-1.11,2013-05-10 17:02:00,
2013-05-10 20:12:00,68.2,53.3,28.63,NNE,22,0.0,0.0,59,0.00,,,0.00,open2300-1.11,2013-05-10 17:12:00,
2013-05-10 20:17:00,67.8,53.0,28.64,NNE,22,0.0,0.0,59,0.00,,,0.00,open2300-1.11,2013-05-10 17:17:00,
2013-05-10 20:22:00,67.8,53.0,28.63,NNE,22,0.0,0.0,59,0.00,,,0.00,open2300-1.11,2013-05-10 17:22:00,
2013-05-10 20:32:00,67.6,52.8,28.63,NNE,22,0.0,0.0,59,0.00,,,0.00,open2300-1.11,2013-05-10 17:32:00,
2013-05-10 20:37:00,67.3,52.5,28.63,NNE,22,0.0,0.0,59,0.00,,,0.00,open2300-1.11,2013-05-10 17:37:00,
2013-05-10 20:47:00,67.3,53.0,28.64,NNE,22,0.0,0.0,60,0.00,,,0.00,open2300-1.11,2013-05-10 17:47:00,
2013-05-10 20:57:00,66.9,51.7,28.64,NW,315,0.0,0.0,58,0.00,,,0.00,open2300-1.11,2013-05-10 17:57:00,
2013-05-10 21:02:00,66.9,51.7,28.64,WNW,292,0.0,0.0,58,0.00,,,0.00,open2300-1.11,2013-05-10 18:02:00,
2013-05-10 21:07:00,66.7,51.5,28.64,NW,315,0.0,0.0,58,0.00,,,0.00,open2300-1.11,2013-05-10 18:07:00,
2013-05-10 21:12:00,66.7,51.5,28.64,WNW,292,0.0,0.0,58,0.00,,,0.00,open2300-1.11,2013-05-10 18:12:00,
2013-05-10 21:22:00,66.6,50.8,28.64,SW,225,0.0,0.0,57,0.00,,,0.00,open2300-1.11,2013-05-10 18:22:00,
2013-05-10 21:33:00,66.4,50.7,28.64,SW,225,0.0,0.0,57,0.00,,,0.00,open2300-1.11,2013-05-10 18:33:00,
2013-05-10 21:42:00,66.4,51.2,28.64,SW,225,0.0,0.0,58,0.00,,,0.00,open2300-1.11,2013-05-10 18:42:00,
2013-05-10 21:52:00,66.4,51.2,28.64,SW,225,0.0,0.0,58,0.00,,,0.00,open2300-1.11,2013-05-10 18:52:00,
2013-05-10 21:57:00,66.4,51.2,28.64,SW,225,0.0,0.0,58,0.00,,,0.00,open2300-1.11,2013-05-10 18:57:00,
2013-05-10 22:02:00,66.4,51.2,28.64,SW,225,0.0,0.0,58,0.00,,,0.00,open2300-1.11,2013-05-10 19:02:00,
2013-05-10 22:07:00,66.2,51.5,28.64,SW,225,0.0,0.0,59,0.00,,,0.00,open2300-1.11,2013-05-10 19:07:00,
2013-05-10 22:12:00,66.2,51.5,28.64,SW,225,0.0,0.0,59,0.00,,,0.00,open2300-1.11,2013-05-10 19:12:00,
2013-05-10 22:17:00,66.0,51.3,28.65,SW,225,0.0,0.0,59,0.00,,,0.00,open2300-1.11,2013-05-10 19:17:00,
2013-05-10 22:22:00,66.0,51.3,28.65,SW,225,0.0,0.0,59,0.00,,,0.00,open2300-1.11,2013-05-10 19:22:00,
2013-05-10 22:27:00,65.8,51.6,28.65,SW,225,0.0,0.0,60,0.00,,,0.00,open2300-1.11,2013-05-10 19:27:00,
2013-05-10 22:32:00,65.8,51.6,28.65,SW,225,0.0,0.0,60,0.00,,,0.00,open2300-1.11,2013-05-10 19:32:00,
2013-05-10 22:37:00,65.7,51.4,28.65,SW,225,0.0,0.0,60,0.00,,,0.00,open2300-1.11,2013-05-10 19:37:00,
2013-05-10 22:47:00,65.5,51.3,28.65,SW,225,0.0,0.0,60,0.00,,,0.00,open2300-1.11,2013-05-10 19:47:00,
2013-05-10 22:52:00,65.5,51.3,28.65,NNE,22,0.0,0.0,60,0.00,,,0.00,open2300-1.11,2013-05-10 19:52:00,
2013-05-10 22:57:00,65.3,51.1,28.65,NNE,22,0.0,0.0,60,0.00,,,0.00,open2300-1.11,2013-05-10 19:57:00,
2013-05-10 23:02:00,65.5,51.7,28.65,NNE,22,0.0,0.0,61,0.00,,,0.00,open2300-1.11,2013-05-10 20:02:00,
2013-05-10 23:07:00,65.3,51.5,28.65,NNE,22,0.0,0.0,61,0.00,,,0.00,open2300-1.11,2013-05-10 20:07:00,
2013-05-10 23:12:00,65.3,51.5,28.65,NNE,22,0.0,0.0,61,0.00,,,0.00,open2300-1.11,2013-05-10 20:12:00,
2013-05-10 23:20:00,65.3,51.5,28.65,NNE,22,0.0,0.0,61,0.00,,,0.00,open2300-1.11,2013-05-10 20:20:00,
2013-05-10 23:27:00,65.1,51.3,28.65,NNE,22,0.0,0.0,61,0.00,,,0.00,open2300-1.11,2013-05-10 20:27:00,
2013-05-10 23:32:00,65.1,51.3,28.65,NNE,22,0.0,0.0,61,0.00,,,0.00,open2300-1.11,2013-05-10 20:32:00,
2013-05-10 23:37:00,65.1,51.3,28.65,NNE,22,0.0,0.0,61,0.00,,,0.00,open2300-1.11,2013-05-10 20:37:00,
2013-05-10 23:47:00,64.9,51.6,28.65,NNE,22,0.0,0.0,62,0.00,,,0.00,open2300-1.11,2013-05-10 20:47:00,
2013-05-10 23:52:00,64.9,51.6,28.65,NNE,22,0.0,0.0,62,0.00,,,0.00,open2300-1.11,2013-05-10 20:52:00,
2013-05-10 23:57:00,64.9,51.6,28.65,NNE,22,0.0,0.0,62,0.00,,,0.00,open2300-1.11,2013-05-10 20:57:00,